Back to catalog

COSMOS 734

AliveNavigationLEO
NORAD 7823·PAYLOAD·🇷🇺 Russia

Launched May 28, 1975 from Plesetsk Cosmodrome

Loading…

Next Passes (next 24 hours)

TLE

FreshSource: Space-Track

Epoch: Sep 14, 2026, 00:19 UTC

1 07823U 75045C   26257.01330465 -.00000007  00000-0  60689-4 0  9996
2 07823  74.0148 104.7633 0018255 327.0081 187.0148 12.51799837344183

Track COSMOS 734 in real time with AllMySat

Download on the App Store